Lid_Strength_Index
15 15 15 15 15 14 15 15 15 14 15 15 14 15 15 15 15 15 15 15 16 15 15 14 14 14 15 15 15 15 16 16 18 17 16 16 16 15 14 14 14 14 14
15 15 15 15 15 15 15 15 15 15 15 15 15 15 15 15 16 16 16 16 16 15 14 14 14 13 15 16 16 16 17 16 17 19 17 16 16 15 14 15 14 13 14
15 15 16 15 15 15 15 15 15 15 16 16 16 16 16 16 16 16 16 15 15 15 15 15 15 15 16 16 17 17 17 16 17 17 17 16 15 15 15 15 14 14 13
15 16 16 15 15 15 15 15 15 16 16 16 16 16 16 16 16 15 15 15 15 15 14 15 16 16 17 17 17 17 16 17 16 17 16 16 15 14 15 16 16 15 15
15 15 15 15 15 15 15 15 16 16 16 16 17 17 16 16 15 15 15 15 15 15 15 15 15 16 14 15 16 17 16 16 16 16 17 16 15 16 16 16 16 16 14
14 15 15 15 15 16 16 16 16 16 17 17 17 17 17 15 13 12 13 15 15 16 16 16 16 16 16 14 14 13 13 15 16 16 16 16 16 16 15 16 16 15 18
15 15 15 15 16 16 16 16 17 17 17 17 17 16 16 16 12 12 12 15 16 17 16 16 16 16 16 16 15 13 13 13 13 14 16 15 16 15 15 15 15 16 16
15 15 15 15 16 16 17 17 17 17 17 16 16 16 16 15 12 12 13 15 16 17 17 17 17 16 16 15 15 15 14 14 13 13 13 14 14 13 13 14 15 15 14
15 15 15 16 17 17 17 17 17 16 16 15 15 15 15 15 13 13 14 16 16 17 16 16 16 16 15 13 15 15 15 14 12 11 11 11 12 11 12 14 17 17 18
15 15 16 16 16 17 16 16 16 15 14 14 14 15 15 16 14 14 14 16 17 17 17 16 15 16 14 13 14 15 16 16 15 16 17 16 15 15 13 14 15 17 17
15 15 16 16 16 16 16 17 17 16 15 17 16 16 17 17 17 14 14 15 17 17 17 17 16 14 14 13 12 15 15 14 19 20 20 19 18 17 16 15 15 16 18
15 15 16 17 15 15 17 17 18 18 18 19 20 19 18 17 16 15 14 14 15 17 17 17 17 14 13 12 13 13 13 16 21 22 21 20 19 18 17 16 16 16 15
16 16 17 17 16 16 18 18 19 20 19 19 19 19 18 17 18 15 14 14 14 16 17 16 14 13 13 15 15 14 18 21 23 25 21 20 19 18 18 18 17 17 17
16 17 17 18 18 19 17 17 19 19 20 19 19 19 19 20 19 19 19 19 17 17 16 18 16 15 15 16 20 19 20 21 21 21 21 20 19 20 20 19 21 20 22
16 17 17 18 19 18 17 17 17 17 17 19 19 19 22 22 20 17 19 22 22 19 20 24 26 26 25 26 26 26 24 23 24 22 23 22 22 21 21 21 21 23 24
17 18 18 18 19 19 19 19 15 14 14 13 13 16 18 16 15 15 14 14 14 14 22 28 27 26 26 26 27 26 25 24 25 24 24 24 24 23 23 23 23 24 24
17 18 19 19 19 21 22 20 19 18 13 12 12 12 13 13 14 14 14 13 14 14 25 29 27 27 27 26 26 25 25 23 26 27 26 25 24 25 26 25 24 24 24
22 20 19 19 19 19 19 19 20 21 22 23 17 14 13 13 13 13 14 16 23 24 31 31 31 31 30 28 27 29 28 28 29 28 27 27 28 28 26 26 25 25 25
20 20 20 20 21 20 21 23 22 24 23 26 27 21 22 16 15 15 15 26 29 32 33 33 34 33 31 31 31 32 32 30 31 33 32 30 29 33 27 26 25 25 25
21 21 21 21 23 24 24 24 25 25 26 26 26 24 29 28 29 30 31 32 33 33 33 34 34 35 34 34 34 35 32 33 32 33 30 30 29 32 27 26 26 26 25
20 21 21 24 23 22 22 23 24 25 23 24 23 26 22 26 28 30 31 33 32 34 34 35 35 35 36 36 36 34 34 32 34 31 30 31 30 30 27 26 26 26 25
22 23 24 22 24 24 23 23 23 23 23 24 27 28 16 24 29 31 33 33 33 34 34 34 35 35 35 35 33 34 33 32 31 33 32 30 29 28 27 27 26 26 26
21 22 23 24 23 23 23 23 22 23 24 25 26 26 30 31 29 30 31 35 37 36 37 36 35 34 37 35 35 33 33 30 29 32 30 29 28 27 27 27 26 26 26
20 19 19 20 21 22 22 22 22 24 25 26 27 27 28 31 30 30 32 36 37 37 37 36 35 32 33 33 34 33 33 30 29 28 31 29 28 27 26 26 26 25 26
20 20 20 20 21 21 21 22 23 25 25 26 27 28 31 31 31 30 29 31 34 35 34 32 35 33 32 31 31 32 31 27 27 26 27 27 26 26 25 25 24 24 24
20 20 20 20 21 21 21 22 24 25 26 27 27 28 28 28 28 29 29 29 29 30 30 31 32 31 31 31 31 28 24 21 21 21 23 25 25 24 22 23 23 23 23